DateTimeUTC,F1_A11,F1_S11,BsB_S11,BsG_S11,BsR_S11,BbsB_S11,BbsG_S11,BbsR_S11,BaB_A11,BaG_A11,BaR_A11,Tu_S11,T_S11,Uu_S11,U_S11,P_S11,T1_A11
2021-05-19T06:00:00Z,00000200,20000000,,,,,,,0000.11,0000.19,0000.14,16.2,23.3,01.7,01.1,0678.1,30.8
2021-05-19T06:01:00Z,00000200,20000000,,,,,,,0000.25,0000.07,0000.03,16.2,23.3,01.7,01.1,0678.1,30.8
2021-05-19T06:02:00Z,00000200,20000000,,,,,,,-000.09,-000.24,0000.02,16.2,23.3,01.7,01.1,0678.1,30.8
2021-05-19T06:03:00Z,00000200,60000000,,,,,,,0000.13,0000.21,0000.29,16.3,23.4,01.7,01.1,0678.1,30.8
2021-05-19T06:04:00Z,00000200,41000000,0001.04,0000.76,0000.30,0000.30,0000.05,0000.00,0000.31,0000.29,0000.18,16.5,23.2,01.8,01.2,0679.0,30.8
2021-05-19T06:05:00Z,00000200,01000000,-000.25,0000.80,0000.19,0000.05,-000.07,-000.03,0000.19,0000.45,0000.39,16.5,23.1,01.9,01.3,0679.1,30.8
2021-05-19T06:06:00Z,00000200,01000000,0000.78,0000.39,0000.21,0000.20,0000.09,0000.19,0000.18,0000.09,0000.04,16.5,23.1,01.9,01.3,0679.1,30.8
2021-05-19T06:07:00Z,00000200,01000000,0000.57,0000.81,0000.26,0000.45,0000.17,0000.14,0000.27,0000.25,0000.08,16.5,23.1,01.9,01.2,0679.1,30.8
2021-05-19T06:08:00Z,00000200,01000000,0001.36,0000.88,0000.16,0000.52,0000.26,-000.06,0000.19,0000.47,0000.11,16.5,23.1,02.0,01.3,0679.2,30.8
2021-05-19T06:09:00Z,00000200,01000000,0000.52,0000.56,0000.34,0000.65,0000.25,0000.29,0000.67,-000.19,-000.07,16.5,23.1,02.0,01.3,0679.2,30.8
2021-05-19T06:10:00Z,00000200,00000000,0001.12,0000.71,0000.22,0000.11,0000.13,-000.05,0000.34,0000.53,0000.44,16.5,23.1,02.0,01.4,0679.3,30.8
2021-05-19T06:11:00Z,00000200,00000000,0000.85,0001.06,0000.43,0000.42,0000.07,0000.03,0001.01,0001.68,0001.62,16.4,23.1,02.5,01.7,0679.4,30.8
2021-05-19T06:12:00Z,00000200,00000000,0000.30,0000.42,0000.18,0000.36,0000.21,0000.18,-000.30,-001.11,-000.81,16.4,23.0,02.8,01.8,0679.4,30.8
2021-05-19T06:13:00Z,00000200,00000000,0001.25,0000.51,0000.50,0000.46,0000.19,0000.15,0000.35,0000.39,0000.50,16.4,23.0,02.4,01.6,0679.4,30.8
2021-05-19T06:14:00Z,00000200,00000000,0001.14,0000.87,0000.62,-000.05,0000.35,0000.11,0000.22,0000.37,0000.14,16.5,23.1,02.4,01.6,0679.4,30.8
2021-05-19T06:15:00Z,00000200,00000000,0000.86,0000.72,0000.17,0000.25,0000.15,-000.01,0000.35,0000.47,0000.26,16.5,23.1,02.4,01.6,0679.4,30.8
2021-05-19T06:16:00Z,00000200,00000000,0000.66,0000.68,0000.36,0000.43,0000.04,0000.28,0000.01,-000.00,-000.04,16.5,23.1,02.5,01.7,0679.5,30.8
2021-05-19T06:17:00Z,00000200,00000000,0001.15,0000.85,0000.47,0000.46,0000.09,0000.24,0000.34,0000.73,0000.61,16.5,23.1,02.5,01.7,0679.5,30.8
2021-05-19T06:18:00Z,00000200,00000000,0000.45,0000.67,0000.44,0000.44,0000.24,0000.01,0000.44,-000.01,-000.19,16.5,23.1,02.6,01.7,0679.6,30.8
2021-05-19T06:19:00Z,00000200,00000000,0000.79,0000.63,0000.43,0000.39,0000.13,0000.11,0000.37,0000.59,0000.59,16.6,23.1,02.6,01.7,0679.6,30.8
2021-05-19T06:20:00Z,00000200,00000000,0000.35,0000.64,0000.37,0000.35,0000.31,-000.13,0000.66,-000.00,-000.27,16.5,23.1,02.6,01.7,0679.6,30.8
2021-05-19T06:21:00Z,00000200,00000000,0001.26,0000.79,0000.09,0000.35,0000.42,0000.14,-000.05,0000.26,0000.72,16.5,23.1,02.7,01.8,0679.6,30.8
2021-05-19T06:22:00Z,00000200,00000000,0001.08,0000.61,0000.42,-000.21,0000.08,0000.08,0000.50,0000.01,-000.01,16.5,23.1,02.5,01.7,0679.7,30.8
2021-05-19T06:23:00Z,00000200,00000000,0001.57,0000.52,0000.57,0000.06,0000.38,0000.28,-000.16,0000.53,0000.26,16.5,23.0,02.5,01.7,0679.7,30.8
2021-05-19T06:24:00Z,00000200,00000000,0000.75,0000.89,0000.48,0000.40,0000.09,0000.31,0000.54,0000.32,0000.07,16.5,23.1,02.6,01.7,0679.8,30.8
2021-05-19T06:25:00Z,00000200,00000000,0001.67,0000.88,0000.39,0000.61,0000.16,0000.26,0000.05,0000.29,0000.48,16.5,23.0,02.5,01.7,0679.8,30.8
2021-05-19T06:26:00Z,00000200,00000000,0001.23,0000.72,0000.45,0000.37,0000.31,0000.15,0000.66,0000.03,0000.36,16.5,23.0,02.5,01.7,0679.8,30.8
2021-05-19T06:27:00Z,00000200,00000000,0001.21,0000.90,0000.22,0000.74,0000.10,-000.06,-000.31,0000.14,-000.62,16.5,23.0,02.5,01.6,0679.8,30.8
2021-05-19T06:28:00Z,00000200,00000000,0000.46,0000.85,0000.50,0000.18,-000.09,-000.08,0000.49,0000.07,0000.21,16.5,23.0,02.4,01.6,0679.8,30.8
2021-05-19T06:29:00Z,00000200,00000000,0000.98,0001.14,0000.40,0000.39,-000.04,-000.01,0000.12,0000.04,0000.13,16.5,23.0,02.4,01.6,0679.8,30.8
2021-05-19T06:30:00Z,00000200,00000000,0000.72,0000.43,0000.41,0000.70,0000.57,0000.13,-000.22,-000.03,-000.61,16.5,23.0,02.2,01.5,0679.9,30.8
2021-05-19T06:31:00Z,00000200,00000000,0000.94,0000.36,-000.03,0000.48,0000.19,0000.05,-000.45,-000.41,-000.34,16.5,23.0,01.9,01.2,0679.8,30.8
2021-05-19T06:32:00Z,00000200,01000000,0000.24,0000.39,0000.05,0000.70,-000.21,0000.22,-000.21,-000.24,-000.09,16.5,23.0,01.5,01.0,0679.9,30.8
2021-05-19T06:33:00Z,00000200,01000000,0000.41,0000.54,0000.20,0000.73,0000.01,0000.19,0000.06,-000.25,-000.21,16.5,23.0,01.4,00.9,0679.9,30.8
2021-05-19T06:34:00Z,00000200,01000000,0001.24,0000.75,0000.04,0000.11,0000.14,0000.18,0000.19,0000.06,-000.11,16.5,23.0,01.3,00.9,0679.9,30.8
2021-05-19T06:35:00Z,00000200,01000000,0000.86,0000.58,0000.20,0001.02,0000.12,0000.01,0000.41,0000.71,0000.75,16.4,23.0,01.3,00.9,0679.9,30.8
2021-05-19T06:36:00Z,00000200,01000000,0001.01,0000.53,0000.33,0000.09,0000.20,0000.04,0000.26,0000.08,0000.03,16.5,23.0,01.4,00.9,0679.9,30.8
2021-05-19T06:37:00Z,00000200,01000000,-000.00,0000.33,0000.03,0000.00,0000.03,0000.36,-000.46,-000.42,-000.31,16.4,23.0,01.4,00.9,0679.9,30.8
2021-05-19T06:38:00Z,00000200,01000000,0000.44,0000.58,0000.47,0000.16,0000.08,0000.27,0000.34,0000.03,-000.03,16.4,23.0,01.0,00.7,0679.9,30.8
2021-05-19T06:39:00Z,00000200,01000000,0000.40,0000.39,0000.28,0000.07,-000.20,-000.17,-000.58,-000.23,-000.04,16.4,23.0,01.1,00.7,0679.9,30.8
2021-05-19T06:40:00Z,00000200,01000000,0001.13,0000.27,0000.27,0000.26,0000.20,-000.10,0000.60,0000.16,0000.07,16.4,23.0,01.1,00.7,0679.9,30.8
2021-05-19T06:41:00Z,00000200,01000000,0000.70,0000.47,0000.08,0000.51,0000.30,0000.16,0000.33,0000.66,0000.68,16.4,23.0,01.2,00.8,0679.9,30.8
2021-05-19T06:42:00Z,00000200,01000000,0000.79,0000.35,0000.13,0000.25,-000.03,-000.13,0000.34,0000.37,-000.13,16.4,22.9,01.3,00.9,0679.9,30.8
2021-05-19T06:43:00Z,00000200,01000000,0000.70,0000.43,0000.01,0000.08,0000.08,0000.29,-000.09,-000.12,0000.37,16.4,23.0,01.2,00.8,0679.9,30.8
2021-05-19T06:44:00Z,00000200,01000000,-000.05,0000.59,0000.30,0000.46,0000.14,0000.05,0000.49,0000.21,0000.10,16.4,23.0,01.3,00.9,0679.8,30.8
2021-05-19T06:45:00Z,00000200,01000000,0000.91,0000.26,0000.14,-000.05,-000.10,0000.10,0000.49,0000.48,-000.03,16.4,23.0,01.4,00.9,0679.8,30.8
2021-05-19T06:46:00Z,00000200,01000000,0000.34,0000.44,0000.49,0000.12,0000.09,-000.06,0000.02,0000.34,0000.80,16.4,23.0,01.6,01.1,0679.8,30.8
2021-05-19T06:47:00Z,00000200,01000000,0000.55,0000.76,0000.35,0000.53,0000.24,0000.32,0000.37,0000.38,-000.08,16.5,23.0,01.6,01.1,0679.8,30.8
2021-05-19T06:48:00Z,00000200,01000000,0000.80,0000.61,0000.27,-000.03,-000.10,0000.12,0000.31,0000.13,0000.59,16.5,23.0,01.8,01.2,0679.8,30.8
2021-05-19T06:49:00Z,00000200,00000000,0000.74,0000.34,0000.41,0000.40,0000.19,0000.32,0000.40,0000.36,0000.43,16.5,23.0,01.9,01.2,0679.8,30.8
2021-05-19T06:50:00Z,00000200,01000000,0000.95,0000.32,0000.30,0000.53,0000.14,-000.03,0000.18,0000.28,0000.01,16.4,23.0,01.8,01.2,0679.8,30.8
2021-05-19T06:51:00Z,00000200,01000000,0000.83,0000.20,0000.30,0000.61,0000.08,0000.16,0000.14,-000.07,0000.12,16.4,23.0,01.8,01.2,0679.8,30.8
2021-05-19T06:52:00Z,00000200,01000000,0001.17,0000.63,0000.12,-000.15,0000.25,-000.20,0000.18,0000.40,-000.25,16.4,23.0,01.7,01.2,0679.8,30.8
2021-05-19T06:53:00Z,00000200,01000000,0000.43,0000.46,0000.38,0000.04,-000.08,0000.29,-000.22,-000.38,-000.09,16.4,23.0,01.7,01.1,0679.8,30.8
2021-05-19T06:54:00Z,00000200,01000000,0000.25,0000.49,-000.27,0000.25,0000.05,-000.05,0000.20,0000.38,-000.06,16.4,23.0,01.7,01.1,0679.8,30.8
2021-05-19T06:55:00Z,00000200,01000000,0000.49,0000.46,0000.29,0000.06,0000.08,-000.17,0000.12,0000.07,0000.02,16.4,22.9,01.6,01.1,0679.8,30.8
2021-05-19T06:56:00Z,00000200,01000000,0001.07,0000.49,0000.07,0000.03,0000.05,0000.02,0000.52,0000.35,0000.78,16.4,23.0,01.7,01.1,0679.8,30.8
2021-05-19T06:57:00Z,00000200,40000000,,,,,,,0000.16,0000.19,-000.02,16.5,23.0,02.2,01.5,0679.8,30.8
2021-05-19T06:58:00Z,00000200,60000000,,,,,,,-000.12,-000.29,-000.23,16.2,23.1,01.6,01.0,0678.8,30.8
2021-05-19T06:59:00Z,00000200,20000000,,,,,,,-000.20,0000.24,0000.20,16.2,23.2,01.7,01.1,0678.8,30.8
